Location: Apeadero de Los Molinos-Guadarrama
(40.7091°N, 4.0689°W)
Time: 00:50:13
(UTC+00:00)

ISS - Pass Details

Date: 28 September 2021
Orbit: 417 x 423 km, 51.6° (Epoch: 24 October)

Event Time Altitude Azimuth Distance (km) Brightness Sun altitude
Rises 20:35:32 0° 311° (NW) 2,366 1.2 -29.0°
Reaches altitude 10° 20:37:46 10° 321° (NW) 1,501 -0.2 -29.4°
Enters shadow 20:38:17 13° 325° (NW) 1,314 -0.6 -29.5°
